H1 CPF 2 NER 2023 3 17 9 076 01 glonass142 H2 2001801 9142 45358 2023 3 17 0 0 0 2023 3 20 23 45 0 900 1 1 0 0 0 1 H9 10 0 60020 0.00000 0 -18135163.273 7722824.236 -16177985.984 10 0 60020 900.00000 0 -19977353.205 7921675.178 -13729654.319 10 0 60020 1800.00000 0 -21483945.812 8220516.587 -11014436.329 10 0 60020 2700.00000 0 -22622368.243 8568593.111 -8085151.747 10 0 60020 3600.00000 0 -23372593.097 8910951.135 -4998763.035 10 0 60020 4500.00000 0 -23727823.460 9190965.978 -1815263.111 10 0 60020 5400.00000 0 -23694638.628 9352947.909 1403494.674 10 0 60020 6300.00000 0 -23292595.624 9344716.078 4595001.078 10 0 60020 7200.00000 0 -22553304.503 9120031.012 7697306.106 10 0 60020 8100.00000 0 -21519017.564 8640782.523 10650220.822 10 0 60020 9000.00000 0 -20240792.763 7878840.328 13396482.394 10 0 60020 9900.00000 0 -18776309.353 6817489.144 15882859.855 10 0 60020 10800.00000 0 -17187427.912 5452387.568 18061179.544 10 0 60020 11700.00000 0 -15537597.251 3792010.085 19889251.016 10 0 60020 12600.00000 0 -13889216.637 1857553.173 21331676.277 10 0 60020 13500.00000 0 -12301063.188 -317691.309 22360527.648 10 0 60020 14400.00000 0 -10825891.160 -2689470.247 22955882.077 10 0 60020 15300.00000 0 -9508302.480 -5204164.820 23106202.367 10 0 60020 16200.00000 0 -8382976.360 -7800782.444 22808558.572 10 0 60020 17100.00000 0 -7473330.878 -10413263.826 22068685.580 10 0 60020 18000.00000 0 -6790671.545 -12973010.783 20900875.723 10 0 60020 18900.00000 0 -6333861.709 -15411531.332 19327708.134 10 0 60020 19800.00000 0 -6089528.131 -17663093.484 17379619.386 10 0 60020 20700.00000 0 -6032792.886 -19667278.457 15094322.833 10 0 60020 21600.00000 0 -6128500.859 -21371327.836 12516086.879 10 0 60020 22500.00000 0 -6332891.324 -22732187.354 9694885.123 10 0 60020 23400.00000 0 -6595643.406 -23718162.033 6685433.950 10 0 60020 24300.00000 0 -6862209.248 -24310113.494 3546135.582 10 0 60020 25200.00000 0 -7076336.302 -24502148.977 337946.627 10 0 60020 26100.00000 0 -7182671.833 -24301772.695 -2876805.924 10 0 60020 27000.00000 0 -7129338.896 -23729492.851 -6035638.079 10 0 60020 27900.00000 0 -6870373.891 -22817900.312 -9077127.584 10 0 60020 28800.00000 0 -6367921.403 -21610257.622 -11942113.659 10 0 60020 29700.00000 0 -5594092.162 -20158657.597 -14574853.715 10 0 60020 30600.00000 0 -4532404.083 -18521829.084 -16924113.867 10 0 60020 31500.00000 0 -3178743.988 -16762682.406 -18944171.393 10 0 60020 32400.00000 0 -1541807.821 -14945697.885 -20595709.193 10 0 60020 33300.00000 0 357000.718 -13134267.478 -21846584.564 10 0 60020 34200.00000 0 2484210.296 -11388101.363 -22672457.156 10 0 60020 35100.00000 0 4795435.241 -9760808.358 -23057263.936 10 0 60020 36000.00000 0 7236994.873 -8297751.559 -22993531.964 10 0 60020 36900.00000 0 9747931.951 -7034268.784 -22482523.032 10 0 60020 37800.00000 0 12262346.661 -5994331.894 -21534207.470 10 0 60020 38700.00000 0 14711949.183 -5189700.444 -20167067.722 10 0 60020 39600.00000 0 17028724.617 -4619604.226 -18407735.590 10 0 60020 40500.00000 0 19147599.299 -4270966.865 -16290470.280 10 0 60020 41400.00000 0 21008997.370 -4119159.838 -13856487.483 10 0 60020 42300.00000 0 22561180.966 -4129253.809 -11153152.723 10 0 60020 43200.00000 0 23762276.466 -4257713.209 -8233054.916 10 0 60020 44100.00000 0 24581902.454 -4454461.241 -5152978.483 10 0 60020 45000.00000 0 25002331.733 -4665226.872 -1972794.513 10 0 60020 45900.00000 0 25019139.492 -4834073.544 1245706.968 10 0 60020 46800.00000 0 24641311.320 -4906001.755 4440020.397 10 0 60020 47700.00000 0 23890807.580 -4829514.733 7548139.862 10 0 60020 48600.00000 0 22801603.461 -4559038.220 10509762.132 10 0 60020 49500.00000 0 21418245.964 -4057091.741 13267454.067 10 0 60020 50400.00000 0 19793989.170 -3296119.477 15767761.817 10 0 60020 51300.00000 0 17988586.497 -2259903.349 17962240.691 10 0 60020 52200.00000 0 16065832.620 -944498.592 19808386.407 10 0 60020 53100.00000 0 14090957.772 641347.863 21270450.435 10 0 60020 54000.00000 0 12127982.833 2476314.325 22320124.635 10 0 60020 54900.00000 0 10237144.817 4527152.505 22937082.866 10 0 60020 55800.00000 0 8472499.151 6749840.940 23109369.918 10 0 60020 56700.00000 0 6879797.524 9091196.829 22833630.880 10 0 60020 57600.00000 0 5494728.542 11490880.663 22115176.800 10 0 60020 58500.00000 0 4341593.430 13883711.730 20967885.405 10 0 60020 59400.00000 0 3432470.999 16202199.697 19413938.382 10 0 60020 60300.00000 0 2766905.959 18379188.357 17483399.666 10 0 60020 61200.00000 0 2332133.064 20350502.593 15213641.985 10 0 60020 62100.00000 0 2103827.314 22057489.187 12648631.751 10 0 60020 63000.00000 0 2047348.573 23449345.936 9838085.099 10 0 60020 63900.00000 0 2119428.163 24485141.958 6836510.555 10 0 60020 64800.00000 0 2270226.318 25135444.542 3702156.189 10 0 60020 65700.00000 0 2445673.564 25383483.878 495881.259 10 0 60020 66600.00000 0 2589996.774 25225806.380 -2720025.812 10 0 60020 67500.00000 0 2648322.588 24672388.366 -5883059.972 10 0 60020 68400.00000 0 2569247.252 23746204.637 -8931718.612 10 0 60020 69300.00000 0 2307263.104 22482269.721 -11806702.785 10 0 60020 70200.00000 0 1824937.840 20926191.615 -14452076.562 10 0 60020 71100.00000 0 1094753.009 19132298.662 -16816361.271 10 0 60020 72000.00000 0 100522.625 17161418.209 -18853542.698 10 0 60020 72900.00000 0 -1161669.518 15078400.356 -20523971.204 10 0 60020 73800.00000 0 -2683054.810 12949490.829 -21795136.971 10 0 60020 74700.00000 0 -4442305.949 10839663.252 -22642305.091 10 0 60020 75600.00000 0 -6406200.218 8810022.584 -23048998.206 10 0 60020 76500.00000 0 -8530793.250 6915388.299 -23007317.352 10 0 60020 77400.00000 0 -10763055.025 5202158.181 -22518094.899 10 0 60020 78300.00000 0 -13042900.408 3706541.544 -21590876.753 10 0 60020 79200.00000 0 -15305529.869 2453235.068 -20243734.249 10 0 60020 80100.00000 0 -17483982.888 1454595.686 -18502909.487 10 0 60020 81000.00000 0 -19511797.533 710343.980 -16402301.071 10 0 60020 81900.00000 0 -21325665.126 207809.138 -13982800.315 10 0 60020 82800.00000 0 -22867969.013 -77296.336 -11291491.012 10 0 60020 83700.00000 0 -24089101.207 -179606.301 -8380728.532 10 0 60020 84600.00000 0 -24949460.058 -142390.151 -5307116.507 10 0 60020 85500.00000 0 -25421045.423 -15475.131 -2130401.474 10 0 60021 0.00000 0 -25488584.897 147109.091 1087692.233 10 0 60021 900.00000 0 -25150144.372 289662.978 4284665.892 10 0 60021 1800.00000 0 -24417198.001 357418.558 7398459.885 10 0 60021 2700.00000 0 -23314155.565 299099.356 10368659.090 10 0 60021 3600.00000 0 -21877367.622 69329.941 13137662.340 10 0 60021 4500.00000 0 -20153650.992 -369206.877 15651795.015 10 0 60021 5400.00000 0 -18198396.764 -1043956.383 17862343.299 10 0 60021 6300.00000 0 -16073340.211 -1971098.349 19726490.688 10 0 60021 7200.00000 0 -13844085.737 -3154632.322 21208139.396 10 0 60021 8100.00000 0 -11577489.686 -4585980.537 22278601.711 10 0 60021 9000.00000 0 -9339009.373 -6244125.703 22917148.893 10 0 60021 9900.00000 0 -7190127.738 -8096278.713 23111407.804 10 0 60021 10800.00000 0 -5185959.615 -10099049.506 22857598.248 10 0 60021 11700.00000 0 -3373137.894 -12200073.521 22160606.781 10 0 60021 12600.00000 0 -1788066.303 -14340027.406 21033895.538 10 0 60021 13500.00000 0 -455610.356 -16454951.443 19499247.494 10 0 60021 14400.00000 0 611719.978 -18478783.352 17586352.428 10 0 60021 15300.00000 0 1414062.581 -20345999.016 15332240.697 10 0 60021 16200.00000 0 1963958.833 -21994250.908 12780574.782 10 0 60021 17100.00000 0 2285583.287 -23366894.615 9980811.265 10 0 60021 18000.00000 0 2413479.951 -24415297.976 6987248.603 10 0 60021 18900.00000 0 2390858.579 -25100835.994 3857978.443 10 0 60021 19800.00000 0 2267523.018 -25396487.454 653760.387 10 0 60021 20700.00000 0 2097519.362 -25287965.524 -2563158.015 10 0 60021 21600.00000 0 1936603.782 -24774333.862 -5730252.965 10 0 60021 22500.00000 0 1839637.822 -23868081.633 -8785943.802 10 0 60021 23400.00000 0 1858022.237 -22594653.166 -11670795.725 10 0 60021 24300.00000 0 2037279.084 -20991451.474 -14328681.768 10 0 60021 25200.00000 0 2414885.509 -19106357.100 -16707880.730 10 0 60021 26100.00000 0 3018452.127 -16995823.925 -18762089.071 10 0 60021 27000.00000 0 3864324.272 -14722631.740 -20451326.624 10 0 60021 27900.00000 0 4956666.467 -12353389.661 -21742718.224 10 0 60021 28800.00000 0 6287069.981 -9955894.914 -22611135.882 10 0 60021 29700.00000 0 7834701.167 -7596457.454 -23039689.037 10 0 60021 30600.00000 0 9566985.453 -5337302.054 -23020053.442 10 0 60021 31500.00000 0 11440799.157 -3234156.162 -22552632.400 10 0 60021 32400.00000 0 13404119.920 -1334123.777 -21646547.348 10 0 60021 33300.00000 0 15398067.191 326066.563 -20319458.077 10 0 60021 34200.00000 0 17359247.616 1721367.376 -18597216.147 10 0 60021 35100.00000 0 19222307.369 2839217.978 -16513358.300 10 0 60021 36000.00000 0 20922584.551 3679818.032 -14108449.784 10 0 60021 36900.00000 0 22398750.491 4255858.954 -11429290.518 10 0 60021 37800.00000 0 23595329.140 4591726.140 -8527999.764 10 0 60021 38700.00000 0 24464988.822 4722207.296 -5460997.413 10 0 60021 39600.00000 0 24970510.181 4690762.934 -2287902.193 10 0 60021 40500.00000 0 25086347.820 4547433.611 929631.286 10 0 60021 41400.00000 0 24799720.318 4346473.625 4129113.516 10 0 60021 42300.00000 0 24111183.263 4143812.351 7248435.227 10 0 60021 43200.00000 0 23034661.717 3994451.375 10227072.735 10 0 60021 44100.00000 0 21596941.296 3949908.035 13007259.922 10 0 60021 45000.00000 0 19836639.674 4055813.703 15535104.175 10 0 60021 45900.00000 0 17802701.943 4349768.303 17761624.981 10 0 60021 46800.00000 0 15552482.879 4859541.555 19643695.678 10 0 60021 47700.00000 0 13149496.094 5601696.630 21144870.906 10 0 60021 48600.00000 0 10660923.496 6580694.206 22236084.675 10 0 60021 49500.00000 0 8154988.038 7788514.756 22896206.511 10 0 60021 50400.00000 0 5698298.062 9204815.420 23112445.753 10 0 60021 51300.00000 0 3353272.406 10797615.677 22880596.853 10 0 60021 52200.00000 0 1175751.932 12524484.204 22205121.276 10 0 60021 53100.00000 0 -787104.638 14334178.599 21099064.444 10 0 60021 54000.00000 0 -2498554.378 16168670.857 19583808.986 10 0 60021 54900.00000 0 -3933562.367 17965475.434 17688668.420 10 0 60021 55800.00000 0 -5079599.519 19660183.882 15450328.230 10 0 60021 56700.00000 0 -5936913.520 21189101.153 12912144.148 10 0 60021 57600.00000 0 -6518262.120 22491873.975 10123310.162 10 0 60021 58500.00000 0 -6848120.332 23514001.535 7137911.487 10 0 60021 59400.00000 0 -6961395.171 24209123.075 4013880.113 10 0 60021 60300.00000 0 -6901702.337 24540986.000 811872.768 10 0 60021 61200.00000 0 -6719277.822 24485011.003 -2405907.025 10 0 60021 62100.00000 0 -6468613.044 24029387.445 -5576919.715 10 0 60021 63000.00000 0 -6205914.067 23175651.766 -8639509.384 10 0 60021 63900.00000 0 -5986493.120 21938723.464 -11534107.904 10 0 60021 64800.00000 0 -5862203.728 20346396.216 -14204399.490 10 0 60021 65700.00000 0 -5879028.970 18438304.584 -16598422.307 10 0 60021 66600.00000 0 -6074925.959 16264409.012 -18669585.057 10 0 60021 67500.00000 0 -6478018.765 13883062.219 -20377578.296 10 0 60021 68400.00000 0 -7105217.223 11358737.485 -21689162.469 10 0 60021 69300.00000 0 -7961320.946 8759513.791 -22578817.167 10 0 60021 70200.00000 0 -9038647.301 6154422.674 -23029238.999 10 0 60021 71100.00000 0 -10317199.896 3610767.389 -23031678.477 10 0 60021 72000.00000 0 -11765371.275 1191525.964 -22586109.504 10 0 60021 72900.00000 0 -13341150.916 -1047053.952 -21701228.315 10 0 60021 73800.00000 0 -14993788.331 -3057568.773 -20394281.970 10 0 60021 74700.00000 0 -16665841.748 -4803193.775 -18690729.862 10 0 60021 75600.00000 0 -18295526.605 -6258967.638 -16623744.825 10 0 60021 76500.00000 0 -19819265.309 -7412574.317 -14233563.641 10 0 60021 77400.00000 0 -21174331.101 -8264590.960 -11566699.688 10 0 60021 78300.00000 0 -22301474.838 -8828193.128 -8675033.268 10 0 60021 79200.00000 0 -23147424.114 -9128331.441 -5614797.591 10 0 60021 80100.00000 0 -23667149.499 -9200416.023 -2445480.605 10 0 60021 81000.00000 0 -23825802.508 -9088565.906 771335.460 10 0 60021 81900.00000 0 -23600243.821 -8843498.775 3973173.780 10 0 60021 82800.00000 0 -22980097.625 -8520151.504 7097877.957 10 0 60021 83700.00000 0 -21968287.994 -8175133.058 10084818.433 10 0 60021 84600.00000 0 -20581035.076 -7864118.110 12876066.683 10 0 60021 85500.00000 0 -18847311.490 -7639291.881 15417514.426 10 0 60022 0.00000 0 -16807782.130 -7546954.217 17659916.316 10 0 60022 900.00000 0 -14513270.524 -7625383.851 19559837.656 10 0 60022 1800.00000 0 -12022818.437 -7903052.700 21080486.614 10 0 60022 2700.00000 0 -9401415.456 -8397264.987 22192419.802 10 0 60022 3600.00000 0 -6717494.974 -9113278.420 22874105.447 10 0 60022 4500.00000 0 -4040298.625 -10043944.334 23112335.361 10 0 60022 5400.00000 0 -1437217.563 -11169882.288 22902478.214 10 0 60022 6300.00000 0 1028780.417 -12460182.463 22248569.584 10 0 60022 7200.00000 0 3301532.517 -13873607.416 21163237.051 10 0 60022 8100.00000 0 5333773.805 -15360244.014 19667461.484 10 0 60022 9000.00000 0 7088855.583 -16863537.736 17790178.457 10 0 60022 9900.00000 0 8542018.791 -18322625.337 15567726.663 10 0 60022 10800.00000 0 9681170.194 -19674869.301 13043152.941 10 0 60022 11700.00000 0 10507129.643 -20858488.652 10265386.344 10 0 60022 12600.00000 0 11033338.402 -21815176.119 7288296.327 10 0 60022 13500.00000 0 11285041.267 -22492591.877 4169652.595 10 0 60022 14400.00000 0 11297977.079 -22846628.681 970006.312 10 0 60022 15300.00000 0 11116633.057 -22843352.303 -2248485.692 10 0 60022 16200.00000 0 10792137.014 -22460534.701 -5423270.726 10 0 60022 17100.00000 0 10379876.883 -21688713.996 -8492620.112 10 0 60022 18000.00000 0 9936948.846 -20531735.415 -11396834.764 10 0 60022 18900.00000 0 9519542.760 -19006749.142 -14079412.294 10 0 60022 19800.00000 0 9180376.303 -17143664.003 -16488152.294 10 0 60022 20700.00000 0 8966287.264 -14984078.923 -18576177.570 10 0 60022 21600.00000 0 8916086.647 -12579736.090 -20302851.044 10 0 60022 22500.00000 0 9058764.181 -9990559.987 -21634570.154 10 0 60022 23400.00000 0 9412122.809 -7282363.868 -22545423.157 10 0 60022 24300.00000 0 9981900.469 -4524319.110 -23017694.586 10 0 60022 25200.00000 0 10761416.821 -1786292.702 -23042210.134 10 0 60022 26100.00000 0 11731760.317 863836.397 -22618514.383 10 0 60022 27000.00000 0 12862508.162 3362770.630 -21754878.101 10 0 60022 27900.00000 0 14112949.196 5654189.404 -20468135.030 10 0 60022 28800.00000 0 15433758.425 7690847.648 -18783351.465 10 0 60022 29700.00000 0 16769052.885 9436290.756 -16733335.061 10 0 60022 30600.00000 0 18058742.294 10866115.388 -14357992.499 10 0 60022 31500.00000 0 19241075.427 11968724.715 -11703548.618 10 0 60022 32400.00000 0 20255274.838 12745547.995 -8821642.391 10 0 60022 33300.00000 0 21044148.689 13210716.900 -5768317.647 10 0 60022 34200.00000 0 21556569.425 13390213.922 -2602928.584 10 0 60022 35100.00000 0 21749714.627 13320530.438 613018.110 10 0 60022 36000.00000 0 21590975.507 13046892.602 3817061.528 10 0 60022 36900.00000 0 21059452.591 12621131.391 6947001.354 10 0 60022 37800.00000 0 20146975.671 12099287.893 9942105.246 10 0 60022 38700.00000 0 18858605.183 11539055.829 12744285.159 10 0 60022 39600.00000 0 17212594.044 10997169.840 15299219.796 10 0 60022 40500.00000 0 15239811.540 10526849.908 17557401.725 10 0 60022 41400.00000 0 12982653.232 10175409.610 19475089.492 10 0 60022 42300.00000 0 10493482.124 9982128.623 21015147.012 10 0 60022 43200.00000 0 7832665.530 9976478.575 22147754.963 10 0 60022 44100.00000 0 5066288.537 10176776.414 22850981.378 10 0 60022 45000.00000 0 2263638.081 10589321.519 23111201.242 10 0 60022 45900.00000 0 -505439.159 11208052.684 22923357.700 10 0 60022 46800.00000 0 -3173196.854 12014739.547 22291060.187 10 0 60022 47700.00000 0 -5676558.151 12979700.941 21226517.653 10 0 60022 48600.00000 0 -7959488.685 14063020.834 19750307.859 10 0 60022 49500.00000 0 -9975076.223 15216211.874 17890986.577 10 0 60022 50400.00000 0 -11687231.579 16384257.836 15684543.377 10 0 60022 51300.00000 0 -13071940.860 17507950.305 13173713.491 10 0 60022 52200.00000 0 -14118017.499 18526422.310 10407158.048 10 0 60022 53100.00000 0 -14827323.040 19379772.993 7438527.591 10 0 60022 54000.00000 0 -15214447.789 20011673.083 4325426.309 10 0 60022 54900.00000 0 -15305864.906 20371841.225 1128296.576 10 0 60022 55800.00000 0 -15138593.863 20418286.354 -2090754.640 10 0 60022 56700.00000 0 -14758429.729 20119220.529 -5269164.549 10 0 60022 57600.00000 0 -14217813.291 19454560.287 -8345134.601 10 0 60022 58500.00000 0 -13573432.621 18416951.998 -11258837.410 10 0 60022 59400.00000 0 -12883657.926 17012276.452 -13953586.399 10 0 60022 60300.00000 0 -12205918.871 15259610.078 -16376944.678 10 0 60022 61200.00000 0 -11594135.954 13190643.156 -18481750.932 10 0 60022 62100.00000 0 -11096315.187 10848578.216 -20227041.882 10 0 60022 63000.00000 0 -10752408.339 8286553.850 -21578853.063 10 0 60022 63900.00000 0 -10592529.688 5565659.161 -22510882.172 10 0 60022 64800.00000 0 -10635604.938 2752621.170 -23005002.118 10 0 60022 65700.00000 0 -10888509.650 -82738.791 -23051613.886 10 0 60022 66600.00000 0 -11345733.684 -2870174.081 -22649832.500 10 0 60022 67500.00000 0 -11989585.948 -5541696.368 -21807502.629 10 0 60022 68400.00000 0 -12790930.817 -8034162.587 -20541043.666 10 0 60022 69300.00000 0 -13710425.178 -10291658.004 -18875127.363 10 0 60022 70200.00000 0 -14700203.828 -12267576.792 -16842194.363 10 0 60022 71100.00000 0 -15705942.025 -13926314.225 -14481819.059 10 0 60022 72000.00000 0 -16669207.944 -15244500.853 -11839935.275 10 0 60022 72900.00000 0 -17530005.536 -16211728.312 -8967937.984 10 0 60022 73800.00000 0 -18229400.132 -16830737.836 -5921678.823 10 0 60022 74700.00000 0 -18712115.635 -17117065.093 -2760375.366 10 0 60022 75600.00000 0 -18928993.348 -17098157.955 454544.136 10 0 60022 76500.00000 0 -18839208.385 -16812005.938 3660637.573 10 0 60022 77400.00000 0 -18412149.957 -16305340.591 6795663.547 10 0 60022 78300.00000 0 -17628886.137 -15631484.018 9798789.690 10 0 60022 79200.00000 0 -16483151.321 -14847937.300 12611771.086 10 0 60022 80100.00000 0 -14981814.781 -14013811.220 15180075.890 10 0 60022 81000.00000 0 -13144810.508 -13187207.921 17453936.635 10 0 60022 81900.00000 0 -11004531.030 -12422663.764 19389307.448 10 0 60022 82800.00000 0 -8604710.132 -11768760.711 20948709.352 10 0 60022 83700.00000 0 -5998840.475 -11266006.098 22101948.271 10 0 60022 84600.00000 0 -3248191.143 -10945069.229 22826692.802 10 0 60022 85500.00000 0 -419506.459 -10825448.174 23108901.445 10 0 60023 0.00000 0 2417519.402 -10914622.136 22943091.782 10 0 60023 900.00000 0 5192890.198 -11207724.762 22332446.632 10 0 60023 1800.00000 0 7838965.642 -11687751.892 21288755.514 10 0 60023 2700.00000 0 10293025.929 -12326295.512 19832191.969 10 0 60023 3600.00000 0 12499633.888 -13084773.617 17990930.543 10 0 60023 4500.00000 0 14412699.204 -13916105.121 15800609.951 10 0 60023 5400.00000 0 15997159.513 -14766760.290 13303651.795 10 0 60023 6300.00000 0 17230208.927 -15579101.269 10548446.943 10 0 60023 7200.00000 0 18102023.084 -16293914.751 7588424.407 10 0 60023 8100.00000 0 18615950.604 -16853030.426 4481019.989 10 0 60023 9000.00000 0 18788163.083 -17201914.715 1286564.239 10 0 60023 9900.00000 0 18646778.407 -17292129.936 -1932888.851 10 0 60023 10800.00000 0 18230494.361 -17083554.236 -5114769.497 10 0 60023 11700.00000 0 17586790.387 -16546267.506 -8197212.247 10 0 60023 12600.00000 0 16769773.525 -15662022.153 -11120264.203 10 0 60023 13500.00000 0 15837760.011 -14425235.226 -13827057.121 10 0 60023 14400.00000 0 14850695.261 -12843458.609 -16264919.884 10 0 60023 15300.00000 0 13867521.672 -10937305.856 -18386409.016 10 0 60023 16200.00000 0 12943606.001 -8739837.412 -20150236.695 10 0 60023 17100.00000 0 12128335.405 -6295428.736 -21522077.892 10 0 60023 18000.00000 0 11462983.966 -3658167.696 -22475240.756 10 0 60023 18900.00000 0 10978939.897 -889847.399 -22991187.250 10 0 60023 19800.00000 0 10696368.282 1942362.449 -23059893.982 10 0 60023 20700.00000 0 10623365.602 4768469.084 -22680046.404 10 0 60023 21600.00000 0 10755641.508 7518329.205 -21859062.757 10 0 60023 22500.00000 0 11076740.927 10124329.642 -20612947.414 10 0 60023 23400.00000 0 11558796.777 12523964.964 -18965976.602 10 0 60023 24300.00000 0 12163781.105 14662205.176 -16950222.632 10 0 60023 25200.00000 0 12845201.440 16493555.455 -14604925.960 10 0 60023 26100.00000 0 13550170.226 17983722.747 -11975727.399 10 0 60023 27000.00000 0 14221759.471 19110820.528 -9113775.577 10 0 60023 27900.00000 0 14801540.622 19866062.536 -6074727.282 10 0 60023 28800.00000 0 15232201.810 20253917.652 -2917660.535 10 0 60023 29700.00000 0 15460131.410 20291720.954 296077.958 10 0 60023 30600.00000 0 15437858.313 20008758.766 3504068.088 10 0 60023 31500.00000 0 15126245.485 19444867.713 6644030.556 10 0 60023 32400.00000 0 14496343.977 18648608.100 9655036.046 10 0 60023 33300.00000 0 13530828.959 17675089.679 12478685.652 10 0 60023 34200.00000 0 12224957.164 16583542.204 15060239.629 10 0 60023 35100.00000 0 10587005.217 15434733.517 17349672.867 10 0 60023 36000.00000 0 8638170.169 14288343.864 19302637.182 10 0 60023 36900.00000 0 6411935.900 13200406.580 20881312.536 10 0 60023 37800.00000 0 3952931.201 12220922.037 22055131.623 10 0 60023 38700.00000 0 1315326.225 11391744.213 22801364.804 10 0 60023 39600.00000 0 -1439167.074 10744827.614 23105554.925 10 0 60023 40500.00000 0 -4243608.734 10300907.174 22961794.346 10 0 60023 41400.00000 0 -7028364.240 10068665.698 22372839.271 10 0 60023 42300.00000 0 -9723754.033 10044423.272 21350059.221 10 0 60023 43200.00000 0 -12262710.636 10212361.422 19913222.398 10 0 60023 44100.00000 0 -14583334.528 10545272.742 18090120.454 10 0 60023 45000.00000 0 -16631243.691 11005804.844 15916039.091 10 0 60023 45900.00000 0 -18361620.041 11548146.884 13433083.677 10 0 60023 46800.00000 0 -19740868.112 12120088.316 10689371.889 10 0 60023 47700.00000 0 -20747817.099 12665363.626 7738108.045 10 0 60023 48600.00000 0 -21374416.074 13126184.539 4636556.294 10 0 60023 49500.00000 0 -21625893.319 13445852.843 1444932.058 10 0 60023 50400.00000 0 -21520372.944 13571343.184 -1774766.903 10 0 60023 51300.00000 0 -21087964.791 13455745.986 -4959966.963 10 0 60023 52200.00000 0 -20369365.947 13060466.254 -8048738.783 10 0 60023 53100.00000 0 -19414032.817 12357083.969 -10981006.780 10 0 60023 54000.00000 0 -18278001.211 11328796.090 -13699723.644 10 0 60023 54900.00000 0 -17021446.688 9971377.635 -16151986.350 10 0 60023 55800.00000 0 -15706088.550 8293619.796 -18290071.243 10 0 60023 56700.00000 0 -14392547.407 6317225.091 -20072367.557 10 0 60023 57600.00000 0 -13137768.045 4076162.433 -21464190.899 10 0 60023 58500.00000 0 -11992616.519 1615507.968 -22438460.669 10 0 60023 59400.00000 0 -10999752.781 -1010180.891 -22976228.263 10 0 60023 60300.00000 0 -10191868.338 -3738891.199 -23067045.911 10 0 60023 61200.00000 0 -9590362.855 -6503496.117 -22709169.100 10 0 60023 62100.00000 0 -9204514.974 -9234315.388 -21909588.861 10 0 60023 63000.00000 0 -9031181.663 -11861788.457 -20683893.415 10 0 60023 63900.00000 0 -9055038.064 -14319149.242 -19055961.962 10 0 60023 64800.00000 0 -9249346.971 -16544991.518 -17057496.663 10 0 60023 65700.00000 0 -9577224.674 -18485618.413 -14727401.936 10 0 60023 66600.00000 0 -9993348.954 -20097078.507 -12111023.258 10 0 60023 67500.00000 0 -10446036.281 -21346804.142 -9259260.430 10 0 60023 68400.00000 0 -10879599.675 -22214784.285 -6227572.806 10 0 60023 69300.00000 0 -11236886.803 -22694223.803 -3074896.235 10 0 60023 70200.00000 0 -11461890.317 -22791662.689 137506.759 10 0 60023 71100.00000 0 -11502319.436 -22526551.544 3347240.679 10 0 60023 72000.00000 0 -11312023.571 -21930302.448 6491990.917 10 0 60023 72900.00000 0 -10853165.185 -21044856.462 9510733.739 10 0 60023 73800.00000 0 -10098049.865 -19920829.137 12344918.718 10 0 60023 74700.00000 0 -9030536.172 -18615312.910 14939600.560 10 0 60023 75600.00000 0 -7646965.687 -17189429.412 17244498.693 10 0 60023 76500.00000 0 -5956573.821 -15705734.662 19214964.590 10 0 60023 77400.00000 0 -3981363.707 -14225585.956 20812838.835 10 0 60023 78300.00000 0 -1755447.783 -12806580.334 22007182.273 10 0 60023 79200.00000 0 676116.327 -11500171.112 22774868.063 10 0 60023 80100.00000 0 3258948.240 -10349561.321 23101024.077 10 0 60023 81000.00000 0 5931359.357 -9387961.063 22979317.827 10 0 60023 81900.00000 0 8626677.316 -8637280.679 22412078.864 10 0 60023 82800.00000 0 11275785.338 -8107313.530 21410256.377 10 0 60023 83700.00000 0 13809772.602 -7795441.900 19993212.579 10 0 60023 84600.00000 0 16162587.010 -7686878.016 18188355.268 10 0 60023 85500.00000 0 18273581.287 -7755429.940 16030615.835 99